Weather History for LBWN - February, 2013

Change the Weather History Date:

Saturday, February 2, 2013

  Actual Average Record
Temperature  
Mean Temperature 42 °F -  
Max Temperature 51 °F 44 °F 60 °F (2000)
Min Temperature 32 °F 32 °F 8 °F (2012)
Degree Days  
Heating Degree Days 24    
Moisture  
Dew Point 38 °F    
Average Humidity 83    
Maximum Humidity 100    
Minimum Humidity 48    
Precipitation  
Precipitation 0.00 in 0.05 in - ()
Sea Level Pressure  
Sea Level Pressure 29.70 in    
Wind  
Wind Speed 4 mph ()    
Max Wind Speed 9 mph    
Max Gust Speed -    
Visibility 7.0 miles    
Events      
Averages and records for this station are not official NWS values.
T = Trace of Precipitation, MM = Missing Value Source: Averaged Metar Reports

Daily Weather History Graph

Daily Weather History Graph

Search for Another Location

Airport or City:

Trip Planner

Search our weather history database for the weather conditions in past years. The results will help you decide how hot, cold, wet, or windy it might be!

Date:

Astronomy

Feb. 02, 2013 Rise Set
Actual Time 7:22 AM EET 5:21 PM EET
Civil Twilight 6:52 AM EET 5:52 PM EET
Nautical Twilight 6:18 AM EET 6:26 PM EET
Astronomical Twilight 5:45 AM EET 6:59 PM EET
Moon No Moon Rise 10:08 AM EET (2/2)
Length of Visible Light 10h 59m
Length of Day
9h 59m
Waning Gibbous, 63% of the Moon is Illuminated
Feb 2
Waning Gibbous
Feb 3
Last Quarter
Feb 10
New
Feb 17
First Quarter
Feb 25
Full

Hourly Weather History & Observations

Time (EET) Temp. Windchill Dew Point Humidity Pressure Visibility Wind Dir Wind Speed Gust Speed Precip Events Conditions
12:00 AM 37.4 °F 33.9 °F 32.0 °F 81% 29.83 in - WNW 4.5 mph - N/A   Clear
12:30 AM 35.6 °F - 32.0 °F 87% 29.83 in - Calm Calm - N/A   Clear
1:00 AM 33.8 °F 27.9 °F 32.0 °F 93% 29.80 in - North 6.7 mph - N/A   Clear
1:30 AM 35.6 °F 31.8 °F 32.0 °F 87% 29.80 in - North 4.5 mph - N/A   Clear
2:00 AM 42 °F - 31 °F 53% 29.82 in 12 mi NW 8.9 mph - -  
2:00 AM 33.8 °F 29.7 °F 30.2 °F 87% 29.80 in - NW 4.5 mph - N/A   Clear
2:30 AM 33.8 °F 29.7 °F 30.2 °F 87% 29.80 in - North 4.5 mph - N/A   Clear
3:00 AM 33.8 °F - 30.2 °F 87% 29.80 in - North 2.2 mph - N/A   Clear
3:30 AM 32.0 °F 27.6 °F 30.2 °F 93% 29.80 in - WSW 4.5 mph - N/A   Clear
4:00 AM 32.0 °F 25.7 °F 30.2 °F 93% 29.77 in - North 6.7 mph - N/A   Clear
4:30 AM 33.8 °F 29.7 °F 32.0 °F 93% 29.77 in - NNE 4.5 mph - N/A   Clear
5:00 AM 37 °F - 30 °F 69% 29.81 in 12 mi NW 4.5 mph - -   Partly Cloudy
5:00 AM 32.0 °F - 30.2 °F 93% 29.77 in - Variable 2.2 mph - N/A   Clear
5:30 AM 32.0 °F - 30.2 °F 93% 29.77 in - Variable 2.2 mph - N/A   Clear
6:00 AM 30.2 °F 25.5 °F 30.2 °F 100% 29.77 in - North 4.5 mph - N/A   Clear
6:30 AM 32.0 °F - 30.2 °F 93% 29.77 in - Variable 2.2 mph - N/A   Clear
7:00 AM 32.0 °F - 30.2 °F 93% 29.74 in - ESE 2.2 mph - N/A   Clear
7:30 AM 33.8 °F 29.7 °F 30.2 °F 87% 29.74 in - NNW 4.5 mph - N/A   Clear
8:00 AM 38 °F - 31 °F 66% 29.79 in 12 mi Calm Calm - -   Scattered Clouds
8:00 AM 32.0 °F - 30.2 °F 93% 29.74 in - Variable 2.2 mph - N/A   Clear
8:30 AM 33.8 °F 29.7 °F 32.0 °F 93% 29.74 in - NNE 4.5 mph - N/A   Clear
9:00 AM 39.2 °F 33.1 °F 33.8 °F 81% 29.74 in - East 8.9 mph - N/A   Clear
9:30 AM 42.8 °F 40.2 °F 35.6 °F 76% 29.74 in - SE 4.5 mph - N/A   Clear
10:00 AM 41.0 °F 38.1 °F 37.4 °F 87% 29.71 in - SE 4.5 mph - N/A   Clear
10:30 AM 44.6 °F 42.3 °F 37.4 °F 76% 29.71 in - East 4.5 mph - N/A   Clear
11:00 AM 45 °F - 32 °F 48% 29.74 in 6 mi Calm Calm - -   Overcast
11:00 AM 46.4 °F 43.0 °F 35.6 °F 66% 29.71 in - SE 6.7 mph - N/A   Clear
11:30 AM 48.2 °F - 39.2 °F 71% 29.68 in 6.2 mi SE 6.7 mph - N/A   Partly Cloudy
12:00 PM 48.2 °F - 41.0 °F 76% 29.68 in 6.2 mi South 8.9 mph - N/A   Partly Cloudy
12:30 PM 48.2 °F - 41.0 °F 76% 29.68 in 6.2 mi South 4.5 mph - N/A   Mostly Cloudy
1:00 PM 50.0 °F - 41.0 °F 71% 29.65 in 6.2 mi South 6.7 mph - N/A   Scattered Clouds
1:30 PM 51.8 °F - 42.8 °F 71% 29.65 in 6.2 mi Variable 4.5 mph - N/A   Scattered Clouds
2:00 PM 46 °F - 42 °F 81% 29.68 in 6 mi SE 6.7 mph - -   Overcast
2:00 PM 51.8 °F - 42.8 °F 71% 29.65 in 6.2 mi Variable 2.2 mph - N/A   Scattered Clouds
2:30 PM 51.8 °F - 44.6 °F 76% 29.62 in 6.2 mi SSE 4.5 mph - N/A   Scattered Clouds
3:00 PM 51.8 °F - 44.6 °F 76% 29.62 in 6.2 mi SSW 8.9 mph - N/A   Mostly Cloudy
3:30 PM 51.8 °F - 44.6 °F 76% 29.62 in 6.2 mi SSW 6.7 mph - N/A   Mostly Cloudy
4:00 PM 51.8 °F - 44.6 °F 76% 29.62 in 6.2 mi SSW 8.9 mph - N/A   Scattered Clouds
4:30 PM 51.8 °F - 44.6 °F 76% 29.62 in 6.2 mi SSW 8.9 mph - N/A   Scattered Clouds
5:00 PM 45 °F - 40 °F 78% 29.65 in 9 mi NE 4.5 mph - -   Overcast
5:00 PM 50.0 °F - 44.6 °F 82% 29.62 in 6.2 mi SW 6.7 mph - N/A   Mostly Cloudy
5:30 PM 48.2 °F - 42.8 °F 82% 29.62 in 6.2 mi NNW 4.5 mph - N/A   Mostly Cloudy
6:00 PM 50.0 °F - 44.6 °F 82% 29.59 in 6.2 mi Variable 4.5 mph - N/A   Scattered Clouds
6:30 PM 48.2 °F - 44.6 °F 87% 29.62 in 6.2 mi ESE 6.7 mph - N/A   Scattered Clouds
7:00 PM 48.2 °F - 44.6 °F 87% 29.59 in 6.2 mi SE 6.7 mph - N/A   Partly Cloudy
7:30 PM 48.2 °F - 44.6 °F 87% 29.62 in - ESE 4.5 mph - N/A   Clear
8:00 PM 43 °F - 40 °F 86% 29.63 in 6 mi East 2.2 mph - -  
8:00 PM 48.2 °F - 44.6 °F 87% 29.59 in - South 4.5 mph - N/A   Clear
8:30 PM 46.4 °F 44.4 °F 46.4 °F 100% 29.59 in - East 4.5 mph - N/A   Clear
9:00 PM 46.4 °F - 44.6 °F 93% 29.59 in - Variable 2.2 mph - N/A   Clear
9:30 PM 48.2 °F - 46.4 °F 93% 29.62 in - West 4.5 mph - N/A   Clear
10:00 PM 50.0 °F - 44.6 °F 82% 29.62 in - SW 4.5 mph - N/A   Clear
10:30 PM 48.2 °F - 46.4 °F 93% 29.62 in - Variable 4.5 mph - N/A   Clear
11:00 PM 49 °F - 46 °F 83% 29.63 in 6 mi West 8.9 mph - -  
11:00 PM 46.4 °F 44.4 °F 42.8 °F 87% 29.62 in - Variable 4.5 mph - N/A   Clear
11:30 PM 48.2 °F - 44.6 °F 87% 29.62 in - South 4.5 mph - N/A   Clear